Weather History for Rayong, Thailand

Change the Weather History Date:

Monday, March 26, 2012

  Actual Average Record
Temperature  
Mean Temperature 84 °F -  
Max Temperature 91 °F 90 °F 95 °F (2004)
Min Temperature 78 °F 79 °F 77 °F (2003)
Cooling Degree Days 20    
Growing Degree Days 34 (Base 50)    
Moisture  
Dew Point 77 °F    
Average Humidity 82    
Maximum Humidity 94    
Minimum Humidity 63    
Precipitation  
Precipitation 0.00 in 0.09 in - ()
Sea Level Pressure  
Sea Level Pressure 29.87 in    
Wind  
Wind Speed 3 mph ()    
Max Wind Speed 12 mph    
Max Gust Speed -    
Visibility 3.0 miles    
Events      
Averages and records for this station are not official NWS values.
T = Trace of Precipitation, MM = Missing Value Source: Averaged Metar Reports

Daily Weather History Graph

Daily Weather History Graph

Search for Another Location

Airport:

Trip Planner

Search our weather history database for the weather conditions in past years. The results will help you decide how hot, cold, wet, or windy it might be!

Date:

Astronomy

Mar. 26, 2012 Rise Set
Actual Time 6:16 AM ICT 6:27 PM ICT
Civil Twilight 5:55 AM ICT 6:48 PM ICT
Nautical Twilight 5:30 AM ICT 7:13 PM ICT
Astronomical Twilight 5:05 AM ICT 7:37 PM ICT
Moon 8:26 AM ICT (3/26) 9:24 PM ICT (3/26)
Length of Visible Light 12h 53m
Length of Day
12h 10m
Waxing Crescent, 11% of the Moon is Illuminated
Mar 26
Waxing Crescent
Mar 31
First Quarter
Apr 7
Full
Apr 13
Last Quarter
Apr 21
New

Hourly Weather History & Observations

Time (ICT) Temp. Heat Index Dew Point Humidity Pressure Visibility Wind Dir Wind Speed Gust Speed Precip Events Conditions
12:00 AM 82.4 °F 92.4 °F 78.8 °F 89% 29.92 in 3.1 mi Calm Calm - N/A   Mostly Cloudy
12:30 AM 80.6 °F 87.1 °F 77.0 °F 89% 29.92 in 3.1 mi Calm Calm - N/A   Mostly Cloudy
1:00 AM 80.6 °F 88.1 °F 78.8 °F 94% 29.89 in 3.1 mi Calm Calm - N/A   Mostly Cloudy
1:30 AM 80.6 °F 87.1 °F 77.0 °F 89% 29.89 in 3.1 mi North 2.3 mph - N/A   Mostly Cloudy
2:00 AM 80.6 °F 87.1 °F 77.0 °F 89% 29.89 in 3.1 mi NNE 2.3 mph - N/A   Mostly Cloudy
2:30 AM 78.8 °F - 75.2 °F 89% 29.86 in 3.1 mi Calm Calm - N/A   Mostly Cloudy
3:00 AM 78.8 °F - 77.0 °F 94% 29.86 in 3.1 mi Calm Calm - N/A   Mostly Cloudy
3:30 AM 78.8 °F - 75.2 °F 89% 29.86 in 3.1 mi Calm Calm - N/A   Mostly Cloudy
4:00 AM 78.8 °F - 77.0 °F 94% 29.86 in 3.1 mi NNE 2.3 mph - N/A   Mostly Cloudy
4:30 AM 78.8 °F - 77.0 °F 94% 29.86 in 3.1 mi North 2.3 mph - N/A   Mostly Cloudy
5:30 AM 78.8 °F - 77.0 °F 94% 29.89 in 3.1 mi North 3.5 mph - N/A   Mostly Cloudy
6:00 AM 78.8 °F - 77.0 °F 94% 29.89 in 3.1 mi North 2.3 mph - N/A   Mostly Cloudy
6:30 AM 78.8 °F - 77.0 °F 94% 29.89 in 3.1 mi North 2.3 mph - N/A   Mostly Cloudy
7:00 AM 78.8 °F - 77.0 °F 94% 29.89 in 3.1 mi North 4.6 mph - N/A   Mostly Cloudy
7:30 AM 78.8 °F - 77.0 °F 94% 29.92 in 3.1 mi NNE 3.5 mph - N/A   Mostly Cloudy
8:00 AM 80.6 °F 87.1 °F 77.0 °F 89% 29.92 in 3.1 mi North 4.6 mph - N/A   Mostly Cloudy
8:30 AM 80.6 °F 87.1 °F 77.0 °F 89% 29.92 in 3.1 mi North 6.9 mph - N/A   Mostly Cloudy
9:00 AM 80.6 °F 87.1 °F 77.0 °F 89% 2.98 in 2.5 mi NNE 6.9 mph - N/A   Mostly Cloudy
9:30 AM 80.6 °F 87.1 °F 77.0 °F 89% 29.95 in 2.5 mi North 6.9 mph - N/A   Mostly Cloudy
10:00 AM 82.4 °F 90.9 °F 77.0 °F 84% 29.95 in 2.5 mi Calm Calm - N/A   Mostly Cloudy
10:30 AM 82.4 °F 90.9 °F 77.0 °F 84% 29.95 in 2.5 mi NW 2.3 mph - N/A   Mostly Cloudy
11:00 AM 80.6 °F 87.1 °F 77.0 °F 89% 29.95 in 2.5 mi NNE 6.9 mph - N/A   Mostly Cloudy
11:30 AM 84.2 °F 94.1 °F 77.0 °F 79% 29.92 in 2.5 mi South 6.9 mph - N/A   Mostly Cloudy
12:00 PM 84.2 °F 94.1 °F 77.0 °F 79% 29.92 in 2.5 mi SSW 4.6 mph - N/A   Mostly Cloudy
12:30 PM 87.8 °F 99.7 °F 77.0 °F 70% 29.89 in 2.5 mi SSW 6.9 mph - N/A   Mostly Cloudy
1:00 PM 89.6 °F 102.2 °F 77.0 °F 66% 29.86 in 2.5 mi SSW 6.9 mph - N/A   Mostly Cloudy
1:30 PM 89.6 °F 102.2 °F 77.0 °F 66% 29.86 in 2.5 mi South 9.2 mph - N/A   Mostly Cloudy
2:00 PM 87.8 °F 99.7 °F 77.0 °F 70% 29.86 in 2.5 mi South 9.2 mph - N/A   Haze
2:30 PM 89.6 °F 102.2 °F 77.0 °F 66% 29.83 in 3.1 mi South 9.2 mph - N/A   Haze
3:00 PM 91.4 °F 105.1 °F 77.0 °F 63% 29.80 in 3.1 mi SSW 9.2 mph - N/A   Haze
3:30 PM 91.4 °F 105.1 °F 77.0 °F 63% 29.80 in 3.1 mi South 6.9 mph - N/A   Haze
4:00 PM 89.6 °F 102.2 °F 77.0 °F 66% 29.80 in 3.1 mi SSW 11.5 mph - N/A   Haze
4:30 PM 87.8 °F 99.7 °F 77.0 °F 70% 29.80 in 3.1 mi South 9.2 mph - N/A   Mostly Cloudy
5:00 PM 87.8 °F 99.7 °F 77.0 °F 70% 29.80 in 3.1 mi South 6.9 mph - N/A   Mostly Cloudy
5:30 PM 86.0 °F 99.3 °F 78.8 °F 79% 29.80 in 3.1 mi SW 4.6 mph - N/A   Mostly Cloudy
6:00 PM 86.0 °F 96.9 °F 77.0 °F 74% 29.80 in 3.1 mi NNW 6.9 mph - N/A   Mostly Cloudy
6:30 PM 86.0 °F 95.1 °F 75.2 °F 70% 29.80 in 3.1 mi NNW 9.2 mph - N/A   Mostly Cloudy
7:00 PM 84.2 °F 92.3 °F 75.2 °F 74% 29.83 in 3.1 mi NNW 4.6 mph - N/A   Mostly Cloudy
7:30 PM 84.2 °F 92.3 °F 75.2 °F 74% 29.83 in 3.1 mi WSW 2.3 mph - N/A   Mostly Cloudy
8:00 PM 84.2 °F 92.3 °F 75.2 °F 74% 29.83 in 3.1 mi SSW 3.5 mph - N/A   Mostly Cloudy
8:30 PM 82.4 °F 89.5 °F 75.2 °F 79% 29.86 in 3.1 mi West 4.6 mph - N/A   Mostly Cloudy
9:00 PM 82.4 °F 89.5 °F 75.2 °F 79% 29.86 in 3.1 mi Calm Calm - N/A   Mostly Cloudy
9:30 PM 82.4 °F 89.5 °F 75.2 °F 79% 29.89 in 3.1 mi Calm Calm - N/A   Mostly Cloudy
10:00 PM 82.4 °F 89.5 °F 75.2 °F 79% 29.89 in 3.1 mi Calm Calm - N/A   Mostly Cloudy
10:30 PM 82.4 °F 90.9 °F 77.0 °F 84% 29.92 in 3.1 mi North 2.3 mph - N/A   Mostly Cloudy
11:00 PM 82.4 °F 89.5 °F 75.2 °F 79% 29.92 in 3.1 mi Calm Calm - N/A   Mostly Cloudy
11:30 PM 80.6 °F 87.1 °F 77.0 °F 89% 29.92 in 3.1 mi North 3.5 mph - N/A   Mostly Cloudy